Wind_Speed
9 7 5 3 4 5 6 1 2 2 3 4 5 4 5 6 6 6 10 11 7 5 6 8 10 11 12 10 10 18 20 15 11 12 13 12 10 9 8 8 9 12 16 18 21 22 21 27 33 33 33 35 35 37 39 39 40 39 37 35 34 34 33 31 29 28 28 29 30 30 31 30 26 23 23 24 24 24 25 26 28 29 30 29 27 26
9 7 2 3 5 6 6 1 2 6 6 5 4 3 4 5 8 10 11 9 6 5 8 11 11 10 12 12 7 15 12 7 8 11 13 13 13 11 11 12 15 17 21 25 25 22 22 29 35 35 35 36 37 39 38 36 35 35 34 34 34 32 31 31 30 29 28 27 28 29 28 25 23 23 23 24 26 26 27 28 29 30 31 30 28 25
8 4 5 6 4 4 4 3 7 7 6 5 3 2 3 5 9 10 7 3 5 4 9 13 11 8 10 8 2 9 7 5 9 13 15 15 14 13 14 16 19 22 25 28 25 21 25 32 35 35 35 36 37 37 35 33 33 34 34 33 32 31 31 30 27 27 26 23 24 26 25 23 23 24 24 25 26 27 28 29 31 32 30 29 28 25
4 2 7 4 3 6 6 5 7 6 5 3 2 3 4 5 4 6 7 6 6 4 8 13 10 5 4 5 7 8 13 15 16 19 17 16 16 16 17 19 23 24 26 28 25 25 31 33 32 32 35 38 37 35 33 33 34 35 34 32 31 30 29 28 26 25 26 27 29 29 28 27 26 25 25 25 26 27 29 29 30 32 32 30 28 27
2 6 5 4 7 7 4 5 6 5 5 4 2 1 6 9 6 7 11 12 10 5 5 7 8 4 1 4 4 7 14 17 17 20 18 18 19 19 20 23 25 25 26 28 28 31 33 29 29 35 39 39 36 32 32 33 33 34 33 31 30 28 27 27 28 28 30 32 31 29 29 28 27 27 27 28 28 29 30 30 30 30 32 32 31 30
2 5 4 5 6 7 5 4 2 3 4 5 4 4 7 10 10 13 13 10 8 6 2 5 5 5 0 5 4 4 8 9 12 16 16 20 21 21 22 25 26 26 28 29 29 31 31 29 34 41 42 39 35 32 33 35 35 33 31 30 29 29 29 29 30 30 31 31 27 26 27 26 25 26 28 29 30 30 30 31 31 30 30 32 33 33
2 4 5 5 4 6 5 4 2 4 4 4 5 6 8 8 11 16 15 7 3 6 4 6 3 4 2 3 4 5 6 6 9 11 13 18 19 19 22 24 27 27 27 27 28 30 32 34 39 42 41 38 35 35 37 38 37 34 31 30 29 30 32 33 33 32 32 30 25 24 26 25 26 28 29 29 29 29 29 29 30 31 31 32 33 33
1 6 7 5 5 5 5 4 3 3 5 4 7 7 9 11 13 15 12 5 3 5 5 5 3 4 4 1 3 7 8 6 6 7 9 14 17 19 23 26 28 26 26 28 30 32 34 37 41 42 40 37 35 37 40 39 37 33 29 28 29 31 34 35 34 33 32 29 23 23 27 28 29 29 30 31 30 30 30 30 30 30 31 33 33 33
0 2 2 3 5 4 3 5 5 2 3 6 8 7 9 10 12 13 9 5 4 2 4 6 6 4 7 4 3 7 7 4 5 5 5 12 18 20 24 28 28 27 27 29 32 34 36 39 42 40 37 37 37 39 39 38 35 29 27 29 31 34 35 34 31 29 27 23 20 23 29 31 33 32 31 31 32 31 31 31 32 31 30 32 34 35
1 1 3 4 3 1 4 7 4 5 2 8 8 7 8 8 9 9 5 4 3 1 3 6 9 4 8 5 3 4 3 3 2 3 4 14 22 24 28 30 29 29 30 33 35 37 39 41 40 37 37 41 41 40 40 37 31 26 28 32 34 35 33 30 27 25 22 19 21 26 29 32 33 33 32 31 31 31 31 31 32 32 32 32 32 34
3 2 2 2 1 2 4 6 4 8 6 8 8 8 8 6 5 4 2 1 4 1 4 4 8 4 6 3 1 1 1 3 2 2 7 20 27 26 29 31 30 30 32 35 37 39 41 42 39 39 43 46 43 43 42 35 27 27 30 33 34 33 30 28 26 23 20 21 24 28 29 30 30 30 31 32 32 32 32 32 32 32 33 33 32 33
6 2 2 2 3 2 2 4 6 8 9 8 5 6 8 6 3 3 3 4 4 3 2 5 8 6 4 2 1 0 2 3 4 5 9 17 22 24 27 28 28 28 31 34 36 40 43 42 42 45 48 46 44 43 39 31 29 31 34 34 32 30 29 30 29 26 25 27 29 30 30 29 26 27 30 32 33 33 33 33 34 34 34 33 33 33
5 2 3 3 2 3 3 4 6 7 8 7 5 6 8 6 5 4 4 4 3 4 3 7 9 6 3 2 0 2 4 4 6 8 12 17 20 24 26 27 28 31 36 40 42 44 43 42 45 48 47 44 43 41 36 33 35 38 37 33 28 28 30 33 32 30 29 30 31 31 31 29 27 29 31 32 33 33 33 33 34 35 36 35 34 32
4 4 6 4 3 5 5 3 5 4 5 5 4 5 5 3 5 5 4 3 5 6 5 9 9 5 3 1 1 4 4 5 11 18 20 21 22 24 28 32 37 41 44 45 44 43 43 44 48 48 44 41 41 40 38 38 39 40 38 31 27 30 33 34 34 32 31 32 32 31 30 29 31 35 35 34 33 32 32 32 33 33 34 34 33 33
3 4 4 2 4 7 4 1 1 1 2 2 2 4 2 1 2 4 4 2 6 8 8 9 5 3 3 3 3 6 7 10 18 23 25 27 30 34 39 42 43 44 43 41 41 43 45 48 49 46 42 40 41 40 40 40 41 41 37 30 30 34 36 37 36 34 33 33 30 29 30 30 34 38 38 35 34 34 33 34 34 34 34 34 33 33
1 4 5 6 9 8 3 2 1 3 2 2 2 4 2 2 4 3 5 5 6 8 6 4 3 1 3 3 5 9 9 12 20 27 30 33 37 41 41 40 39 40 39 40 43 47 49 49 47 43 42 41 40 41 42 43 43 43 38 33 34 37 38 39 38 36 35 33 31 30 31 34 38 41 41 38 36 36 35 35 35 36 37 37 35 34
2 5 8 12 13 6 2 2 2 3 1 2 3 3 4 4 5 1 5 4 3 5 4 1 2 4 5 2 3 7 11 15 21 26 29 32 36 37 36 36 38 39 39 42 46 48 49 48 45 44 44 42 41 42 44 43 44 44 40 36 38 41 41 41 40 37 35 35 34 33 33 37 40 42 43 41 38 37 38 39 39 40 40 38 37 35
0 5 8 6 6 5 3 1 3 4 2 2 2 4 3 1 3 1 3 4 3 4 5 2 4 6 5 3 4 12 16 16 16 18 23 29 32 32 32 35 38 38 40 44 46 48 47 46 46 46 45 42 42 43 43 42 44 43 39 37 41 44 43 43 41 38 37 36 34 33 35 38 40 41 42 42 39 39 42 44 46 46 43 39 37 37
0 4 7 3 3 7 6 3 3 4 3 3 1 2 1 1 2 1 1 5 6 6 7 8 9 5 2 2 7 12 13 13 14 16 18 22 26 29 32 36 38 40 41 43 44 46 46 46 46 45 45 45 45 45 44 44 45 42 40 41 46 47 46 45 42 38 36 34 32 33 36 37 38 40 42 41 40 42 46 50 52 51 47 40 37 38
1 1 6 4 5 8 6 3 3 5 3 2 2 2 3 1 3 1 1 2 5 7 7 11 11 3 2 1 6 10 12 13 15 15 14 18 26 31 33 36 38 40 40 41 44 45 44 44 44 45 48 50 49 48 47 46 46 44 45 48 50 49 47 45 41 36 33 32 32 33 35 37 39 41 41 40 41 48 54 57 55 49 42 37 35 36
2 0 5 6 7 7 4 2 2 3 3 3 5 4 3 1 1 2 2 2 2 4 5 8 10 4 2 3 5 12 15 15 15 14 14 21 30 33 35 37 39 39 39 42 44 41 40 43 46 48 49 49 49 48 47 47 48 49 51 52 50 46 44 42 39 34 31 29 30 33 36 39 41 40 41 43 48 56 58 54 48 39 33 32 32 33
1 0 4 5 6 5 4 4 3 3 3 2 4 3 2 1 0 2 5 3 1 2 2 4 9 8 2 2 5 13 13 12 16 18 18 25 33 35 37 39 39 39 41 43 40 37 41 47 49 49 47 47 48 48 47 47 47 49 51 50 47 43 41 41 38 34 33 33 36 41 42 41 40 40 43 49 56 57 50 43 38 33 29 29 29 29
0 1 3 5 5 7 8 5 1 1 1 0 1 1 2 2 2 2 6 6 4 4 3 4 7 7 2 2 9 14 12 13 19 21 22 28 33 34 38 40 39 40 43 41 36 37 47 50 49 48 46 46 47 48 47 46 45 47 49 46 43 42 42 41 39 39 41 44 45 45 42 40 41 44 50 56 55 46 38 35 32 29 27 28 28 26
2 1 3 6 5 5 6 4 2 3 4 3 2 1 0 2 3 4 5 3 4 7 6 5 8 6 2 4 15 16 14 16 21 23 25 29 32 34 38 39 39 41 41 37 36 44 50 48 47 47 46 45 47 48 48 47 48 50 49 45 45 47 48 46 44 45 45 45 43 40 40 43 46 50 54 53 45 37 33 32 30 27 27 28 28 25
3 0 3 6 7 7 6 5 6 4 3 4 5 2 1 2 3 4 3 1 1 5 5 6 10 9 3 9 16 14 11 15 20 24 26 28 30 33 37 38 39 41 38 37 42 48 47 46 47 48 47 46 47 48 50 52 51 49 46 46 47 47 47 47 47 46 42 38 38 41 45 47 48 49 48 42 35 33 32 29 27 27 26 27 29 27
0 1 1 2 3 7 8 7 9 9 7 5 5 4 2 4 4 3 2 1 2 4 4 5 11 13 11 15 17 11 10 15 20 26 27 27 30 34 38 39 39 38 37 39 44 45 45 45 47 47 46 47 49 49 50 52 50 46 44 43 42 42 45 45 43 38 36 38 44 47 47 44 44 43 38 32 30 29 28 27 26 27 26 28 30 29
1 1 1 3 3 5 8 10 11 11 9 10 10 10 9 4 5 1 1 3 4 6 6 7 10 14 16 18 15 11 12 14 18 24 26 27 30 35 38 39 37 36 38 41 43 43 44 44 46 46 43 45 53 54 51 49 48 47 46 44 42 43 42 37 33 35 40 45 45 41 37 36 37 35 30 27 27 28 29 29 29 29 28 28 28 28
3 3 2 1 5 9 11 14 14 11 10 12 14 15 12 4 3 3 3 6 7 7 10 12 13 16 19 16 11 10 12 12 16 23 26 26 30 35 39 38 36 36 40 43 43 43 45 44 45 46 43 45 51 53 52 51 47 41 41 43 44 41 36 34 37 42 43 38 32 32 34 34 33 31 30 31 32 33 33 33 31 29 27 27 28 28
4 2 4 3 9 13 12 13 12 10 10 12 14 14 9 0 3 3 5 6 6 6 13 19 20 21 20 14 10 11 13 15 22 28 29 29 32 37 39 38 36 38 40 42 44 45 46 45 43 44 47 49 49 47 49 52 48 40 40 45 43 35 33 38 41 38 32 29 31 37 38 35 32 31 32 32 32 31 29 29 27 25 24 25 26 27
3 3 4 4 9 12 12 11 11 9 11 14 15 12 3 3 3 4 4 5 5 8 13 19 22 21 15 10 10 16 21 25 30 33 31 30 33 38 39 37 37 41 42 42 44 45 46 45 43 45 49 51 52 52 52 51 47 42 43 45 39 30 32 37 33 29 32 38 40 38 36 35 33 31 30 28 26 25 25 26 27 27 27 27 27 28
3 2 4 3 6 10 10 9 9 9 13 16 14 9 3 1 3 4 4 4 5 10 15 18 20 17 10 10 15 21 27 30 30 31 31 31 35 38 37 36 39 43 44 45 45 45 46 44 42 45 48 50 53 55 56 54 45 40 43 42 35 31 33 32 27 30 39 43 40 35 34 34 32 30 29 27 25 26 28 29 30 31 32 32 31 32
3 3 4 4 5 9 8 9 12 14 15 13 10 8 7 6 3 2 4 5 7 13 18 18 15 11 9 13 18 22 27 29 27 28 30 32 36 37 33 34 39 43 45 46 46 46 47 45 43 44 47 51 53 50 50 51 45 41 42 40 34 33 33 30 29 33 37 37 34 32 32 31 30 30 29 27 27 28 30 32 32 31 30 31 30 30
2 3 4 4 4 9 11 11 13 13 10 8 5 4 4 5 4 3 5 7 10 12 13 13 11 10 12 16 18 20 22 23 25 28 30 33 35 33 30 33 39 43 44 45 46 47 47 46 45 45 46 51 55 52 49 47 43 41 40 37 36 36 34 32 32 34 34 32 30 30 30 30 30 29 29 28 28 29 32 35 35 32 28 27 27 27
2 2 3 1 1 8 14 13 10 7 7 7 2 3 2 3 6 9 9 11 14 12 8 9 10 12 16 18 18 20 23 25 29 31 33 35 33 30 31 35 39 42 44 45 46 48 48 47 45 46 48 51 53 53 50 45 41 38 37 37 37 35 34 33 32 32 32 30 29 30 30 30 30 30 30 29 29 32 36 37 35 31 27 27 27 27
3 3 3 1 2 5 8 8 8 8 8 5 2 4 2 0 5 13 16 15 15 13 9 9 10 14 19 23 25 29 32 34 37 36 34 33 30 30 35 39 40 42 45 47 48 49 49 47 45 47 51 53 52 51 50 46 41 37 35 35 34 33 32 33 32 31 30 29 29 30 30 31 31 30 30 31 33 37 37 35 32 29 27 27 26 24
2 3 2 2 2 4 6 7 7 11 11 5 3 2 3 3 7 14 16 13 10 7 6 8 11 17 24 29 33 35 37 39 38 36 33 30 30 35 38 41 43 45 47 48 48 50 48 44 45 48 51 53 53 51 50 45 39 37 35 33 32 31 31 31 31 30 30 30 30 30 30 31 31 31 33 35 37 37 34 32 30 28 27 26 23 20
1 0 2 2 1 2 6 7 7 11 11 4 3 2 4 6 10 12 13 12 5 1 7 12 14 21 28 32 35 38 40 35 27 26 31 33 37 41 42 44 47 48 48 47 47 48 45 42 46 49 52 55 52 49 49 46 38 36 36 34 33 33 31 31 31 30 31 31 32 32 31 31 32 34 36 37 37 35 33 30 28 26 26 25 22 18
0 1 1 1 1 1 4 7 8 10 9 3 0 5 6 10 14 12 12 9 1 5 19 20 17 24 28 30 35 37 34 23 13 17 30 39 44 47 46 48 48 46 48 49 48 46 43 44 49 50 52 54 49 45 48 45 38 36 36 36 36 34 31 30 30 31 33 33 32 32 32 33 34 36 37 37 36 34 31 29 27 25 24 23 20 17
3 1 3 1 3 3 3 6 6 7 7 3 4 10 15 19 21 16 12 7 4 16 30 26 22 28 29 30 35 31 21 13 10 19 37 46 49 48 48 50 50 48 49 49 48 45 43 46 50 49 51 51 45 45 50 44 36 36 36 36 36 34 31 32 33 34 34 33 33 33 34 36 36 36 37 36 34 31 29 27 25 23 21 19 17 15
4 3 3 2 4 4 4 5 4 4 6 4 5 14 22 24 21 14 9 9 14 26 34 30 29 32 31 33 33 21 13 14 17 31 48 52 49 49 50 50 50 51 52 49 46 45 47 49 49 50 53 49 42 45 50 43 35 35 36 36 35 33 33 35 35 35 34 33 34 35 36 37 36 36 35 33 31 29 27 25 23 22 20 18 17 15
3 2 2 1 4 5 4 5 5 5 5 4 9 20 26 23 17 10 8 14 23 32 36 34 33 35 34 34 29 21 23 31 37 46 54 51 48 51 51 48 49 52 50 48 46 46 47 48 48 49 51 46 40 44 49 42 34 34 35 35 34 33 35 37 37 35 34 34 36 37 38 37 36 34 32 30 29 27 24 23 23 21 20 18 16 15
3 3 2 1 3 4 3 5 8 5 3 12 23 27 25 18 10 9 16 26 32 34 36 36 36 37 36 34 34 34 38 44 47 50 50 48 49 51 50 50 52 50 48 48 48 46 46 47 49 50 46 38 37 45 48 40 33 33 34 34 34 35 38 38 37 35 36 37 38 38 38 37 34 32 30 28 27 26 25 23 21 20 18 16 15 14
2 3 4 3 2 3 5 5 6 5 10 24 28 19 14 11 11 18 27 34 36 36 36 37 38 38 37 37 40 43 46 48 49 50 50 49 48 50 53 54 52 50 51 51 45 43 47 49 49 47 40 34 40 48 45 36 32 34 34 34 35 38 39 38 37 37 38 39 39 38 37 35 32 30 29 27 27 27 26 23 19 17 17 16 15 15
1 1 3 3 0 3 4 3 4 10 19 28 25 15 14 18 22 28 32 34 37 39 38 37 39 41 42 42 44 47 48 49 52 52 51 49 50 53 54 52 51 53 53 46 41 45 50 49 47 42 34 36 46 49 41 32 32 35 35 35 37 39 38 38 38 39 40 39 39 38 36 33 31 29 28 27 27 27 25 22 18 16 17 17 16 15
2 3 3 3 2 2 5 9 14 20 24 29 27 23 25 28 30 34 35 36 38 41 40 39 41 45 47 47 48 49 49 51 54 52 51 52 54 53 52 52 54 52 45 42 47 52 49 46 43 37 33 41 48 44 36 32 33 35 36 37 39 39 38 39 40 40 40 40 38 37 34 32 31 29 28 27 27 26 25 22 19 16 16 16 16 16
2 2 2 2 4 7 10 14 20 24 28 34 34 30 30 33 36 39 39 37 38 41 44 44 45 47 48 47 48 48 49 52 53 51 51 52 52 50 52 54 51 45 43 49 55 51 44 42 39 33 37 46 47 39 36 35 34 35 37 38 39 38 38 39 41 41 40 39 37 35 34 32 31 30 29 27 26 25 23 21 19 17 16 16 17 18
2 3 3 2 5 8 8 12 20 27 32 35 35 33 36 40 41 40 39 39 41 43 45 46 46 47 48 48 48 48 48 49 50 50 50 49 48 51 53 50 45 46 51 54 50 43 40 40 37 36 42 46 42 38 38 37 36 37 38 38 38 38 38 39 40 40 39 38 36 35 33 32 32 30 28 26 24 23 21 19 18 17 17 17 18 18
3 4 3 3 5 8 12 19 28 35 36 35 33 35 39 42 42 42 41 41 43 45 45 46 47 48 48 48 47 47 47 46 46 48 47 46 48 51 49 44 46 52 54 48 41 38 38 38 38 40 42 42 40 39 39 38 37 38 38 37 37 37 38 40 40 39 38 36 35 34 33 31 31 29 27 26 24 23 22 21 19 18 17 17 18 19
6 6 5 6 8 9 13 21 29 31 30 31 35 38 40 41 42 42 42 43 44 46 47 50 50 48 46 45 45 46 46 45 45 46 45 46 48 47 44 45 50 51 47 41 36 36 39 40 41 41 40 40 40 40 39 39 38 38 38 38 37 37 39 40 39 38 36 35 34 33 32 30 29 28 28 27 25 23 22 22 22 21 19 17 16 16
9 7 6 7 8 8 11 20 25 20 17 27 38 41 41 41 40 41 43 44 45 47 49 51 52 50 45 42 44 45 44 44 44 44 44 44 45 44 44 47 48 44 39 36 36 39 42 41 40 40 39 39 40 40 40 40 38 38 38 37 37 38 39 39 38 37 36 34 33 32 32 31 29 28 28 28 27 25 23 21 21 21 20 18 15 12
12 10 10 9 8 11 18 28 30 23 22 31 40 42 41 41 41 42 44 46 47 49 49 49 49 48 45 43 42 40 40 43 43 42 41 43 44 44 43 43 41 38 36 35 39 43 43 40 39 40 39 39 39 40 40 39 39 39 38 37 37 38 37 37 37 37 35 33 32 31 31 30 29 28 28 28 28 28 27 25 22 21 20 18 15 11
Wind_Direction
63 64 47 26 315 301 303 291 149 265 275 287 292 269 272 283 284 282 280 294 345 343 281 273 284 288 288 274 207 196 194 192 189 161 147 144 123 101 84 66 50 35 22 12 1 355 354 355 356 354 349 348 346 343 340 340 340 336 334 333 328 322 318 316 315 314 312 308 303 302 302 303 307 312 312 310 311 310 305 297 291 288 285 282 277 272
58 69 1 297 276 295 304 290 54 359 350 353 334 305 308 303 296 286 277 298 4 4 293 285 293 293 287 286 212 178 178 179 172 141 118 106 88 67 57 49 38 25 10 1 355 348 348 347 346 346 346 346 346 344 343 344 344 340 336 335 331 326 321 320 317 311 309 308 307 304 302 302 302 304 307 307 308 308 307 304 300 297 294 289 284 281
42 48 294 287 288 338 359 44 47 13 356 360 352 349 337 317 306 291 259 287 15 353 297 295 299 294 293 309 106 136 124 118 131 115 98 86 70 53 51 40 23 9 356 352 349 344 342 339 339 344 346 346 344 343 342 340 337 334 333 332 331 327 323 322 317 309 306 308 311 310 308 307 305 302 300 301 304 305 305 305 302 301 302 297 288 285
44 284 281 307 31 37 10 21 47 26 3 358 353 6 319 310 323 300 289 317 330 265 268 295 304 297 312 28 64 86 96 96 98 96 89 76 62 49 43 27 11 2 356 353 348 341 338 338 343 348 347 344 341 339 338 334 331 328 327 327 326 327 326 323 317 309 306 308 310 309 308 303 299 297 295 296 298 300 301 302 301 299 301 301 293 287
194 253 290 11 52 53 12 359 49 52 359 318 274 337 308 306 302 279 294 318 319 274 245 309 320 305 345 88 78 81 94 94 93 92 81 65 54 42 30 15 5 1 357 353 346 340 340 342 347 347 342 340 337 336 335 333 331 328 325 324 323 324 325 326 324 317 314 313 312 314 314 309 304 301 299 297 296 297 298 298 298 298 297 297 295 290
257 275 344 38 38 35 27 339 22 89 6 325 264 258 289 304 303 294 303 328 334 311 337 33 350 294 334 113 136 105 92 90 92 87 69 54 43 31 21 11 4 359 354 351 347 344 343 343 343 340 337 336 335 335 335 334 332 329 326 324 321 318 319 323 322 320 318 311 307 315 320 319 317 311 307 304 300 299 299 297 295 295 295 294 294 294
284 346 31 73 51 25 21 329 322 97 47 339 269 272 293 306 307 302 309 331 328 294 326 46 31 279 349 99 166 130 100 98 90 74 56 51 39 27 22 13 4 357 352 352 351 348 343 339 338 336 335 335 334 335 334 332 331 329 325 321 317 316 317 318 318 319 316 305 302 315 317 315 318 313 307 305 302 299 298 298 296 293 292 292 292 292
259 5 19 49 44 26 14 333 300 79 63 300 281 308 317 312 304 297 305 314 268 286 331 24 26 297 315 22 153 110 97 103 91 67 52 46 34 26 19 7 359 355 354 353 349 345 341 338 336 334 333 334 333 331 329 328 328 327 320 313 313 316 318 319 320 322 317 307 308 317 314 314 316 313 306 301 299 296 293 293 294 293 291 288 288 289
211 15 349 55 40 21 1 300 278 49 62 271 287 321 312 300 293 291 300 293 280 325 333 347 18 331 301 333 75 94 96 110 82 64 52 38 28 20 9 359 355 353 352 349 345 341 339 337 335 333 334 334 332 328 325 326 328 324 316 314 317 319 321 323 323 325 324 316 314 313 311 315 315 312 308 300 296 295 295 294 291 290 290 287 284 284
331 246 218 123 79 343 284 280 287 64 16 288 310 330 307 287 281 287 286 278 320 32 258 337 27 358 298 324 68 76 79 127 77 53 48 25 16 8 1 355 352 349 347 345 343 340 337 336 336 336 336 335 331 328 325 326 326 321 318 321 324 325 326 327 326 327 327 319 311 310 314 317 316 313 311 303 299 300 302 302 297 293 290 287 283 281
294 289 260 134 162 244 269 294 357 54 16 339 351 339 318 298 282 294 285 317 18 301 229 19 24 334 298 319 97 55 157 156 102 44 20 11 5 360 355 351 348 347 345 343 339 338 337 337 338 339 337 334 331 327 325 323 321 319 320 324 326 327 329 330 329 326 319 310 308 311 314 317 318 317 314 308 306 307 308 307 304 301 296 290 284 281
335 342 294 275 259 296 346 334 355 26 24 19 11 339 333 327 328 356 355 28 26 284 260 29 359 317 283 282 300 201 195 144 99 63 20 3 355 352 350 349 348 346 342 340 338 338 339 339 339 338 334 331 329 329 325 320 319 321 324 327 328 328 328 327 325 318 308 304 307 312 314 315 319 321 317 311 307 307 308 307 305 304 302 297 289 282
330 276 298 309 299 357 33 351 341 4 21 22 14 3 359 348 349 349 341 358 322 267 303 352 341 318 250 237 142 185 194 148 93 45 11 355 349 349 349 349 349 347 344 342 340 340 339 338 337 334 330 328 329 330 325 318 320 324 326 327 326 324 324 324 322 314 307 305 307 313 316 317 321 323 318 312 309 307 307 305 303 302 301 300 296 287
325 307 335 353 339 2 40 24 337 338 8 17 28 31 14 349 341 318 305 316 283 273 314 332 328 301 276 311 157 186 169 89 35 13 359 354 354 352 352 352 350 347 343 340 339 339 337 334 333 330 327 326 327 328 324 321 322 324 324 323 321 319 320 322 321 314 308 306 306 311 314 317 321 323 320 314 312 310 306 303 301 300 301 301 298 293
345 313 321 27 332 335 9 89 278 330 16 8 109 103 62 297 271 269 261 278 292 296 312 321 309 266 314 343 102 92 61 29 6 358 357 360 0 358 356 352 347 342 339 338 338 336 333 331 330 327 325 324 325 326 324 323 323 323 321 319 317 319 320 320 319 313 308 304 304 307 310 311 315 320 320 315 312 310 307 304 303 301 301 300 297 296
14 269 272 328 324 319 328 261 244 75 35 298 114 83 15 243 197 237 247 239 282 298 298 297 261 220 351 2 95 72 36 6 360 360 3 4 2 359 353 346 341 338 337 338 337 334 332 330 329 326 325 323 324 326 325 323 323 322 319 315 316 319 319 319 317 311 307 304 300 302 306 308 312 317 320 316 312 309 307 306 305 303 301 299 297 297
14 282 293 327 329 334 14 291 359 65 323 318 37 355 285 200 156 239 277 265 302 300 283 260 271 311 338 345 75 33 3 359 3 3 5 4 0 354 346 340 340 339 337 336 334 333 332 331 329 328 326 324 324 325 324 323 323 323 318 314 318 319 317 317 313 306 305 303 299 298 302 308 313 316 319 317 312 307 304 303 302 303 301 297 295 295
286 288 295 311 316 332 13 25 42 55 60 48 15 278 271 111 107 106 294 303 315 284 276 283 300 310 314 293 357 6 360 356 357 2 4 1 355 347 340 340 340 338 335 334 333 333 333 332 331 329 327 325 326 326 325 325 326 325 320 318 321 321 317 314 309 304 302 299 295 298 304 310 315 316 317 316 312 307 307 306 304 302 300 294 290 290
18 305 294 269 295 324 350 40 2 352 52 85 214 235 99 23 306 351 325 300 297 293 292 299 305 307 262 280 353 357 350 348 356 5 4 355 348 343 340 341 339 336 334 333 334 335 334 334 333 332 332 332 332 331 330 330 329 328 324 322 322 320 317 311 304 301 299 293 293 302 309 313 315 315 315 313 309 307 308 308 307 304 297 290 286 285
16 312 284 295 345 335 343 25 333 315 345 34 19 24 61 161 232 261 258 260 286 293 297 307 311 307 153 11 1 347 344 360 5 3 355 346 345 343 342 341 337 334 334 334 334 333 335 338 338 337 337 335 334 332 330 329 327 325 322 321 321 321 320 312 303 299 297 294 299 307 311 313 313 313 312 308 305 306 306 305 305 303 296 290 286 284
348 215 273 300 343 347 336 332 299 281 295 343 357 345 331 280 236 276 248 198 239 278 295 309 303 294 85 59 12 351 357 11 6 354 346 344 344 342 341 339 335 334 334 333 331 332 337 340 338 337 335 333 332 330 328 327 325 323 322 322 321 322 323 318 311 307 303 302 308 311 312 313 312 310 307 305 305 306 305 303 302 301 297 294 291 286
353 241 267 292 326 324 289 251 232 219 217 303 332 300 231 202 31 308 289 272 210 221 222 265 285 298 351 82 12 2 7 11 360 350 343 342 343 341 339 337 335 334 333 331 329 333 338 337 335 335 334 333 332 330 328 327 325 324 324 323 322 322 323 323 320 315 312 311 311 312 312 310 308 306 305 306 308 308 306 302 301 299 296 295 294 290
199 192 264 275 270 267 271 267 280 63 130 247 296 214 174 150 136 247 283 292 293 280 246 224 276 292 179 101 12 14 15 3 354 349 342 340 340 339 336 336 335 334 331 328 330 334 335 333 333 333 332 332 333 332 329 327 326 326 326 325 325 325 323 321 318 314 312 311 310 309 309 307 305 305 307 309 310 309 307 303 300 298 296 295 297 295
341 81 306 296 277 270 279 286 345 44 54 7 300 258 189 166 176 217 242 287 303 288 294 289 288 284 163 21 4 12 11 355 349 348 343 338 338 337 335 334 334 332 330 329 332 333 332 331 331 332 331 331 332 334 332 328 324 324 323 322 321 320 318 316 314 311 309 308 308 307 307 306 306 308 310 311 310 307 306 303 302 302 301 299 298 296
329 282 340 327 321 327 326 321 326 336 358 328 293 298 26 179 233 262 253 32 244 248 280 298 292 292 313 351 353 3 2 348 344 346 343 338 337 335 333 332 331 330 330 332 333 331 330 331 330 330 330 330 331 331 331 329 326 323 321 319 318 317 316 315 312 310 309 308 308 308 308 307 308 310 311 310 308 307 306 306 306 305 301 299 300 296
304 222 24 19 323 320 320 315 318 321 324 313 286 297 316 212 219 272 284 267 244 263 288 279 282 298 318 333 340 352 353 342 341 341 340 339 337 333 330 330 329 329 330 331 331 330 330 330 329 328 329 332 332 330 328 329 328 326 323 320 319 318 316 315 314 312 310 309 310 309 308 307 310 312 312 310 310 311 310 310 308 305 301 299 300 299
122 343 150 138 199 259 280 285 296 309 310 304 303 313 314 251 187 137 293 270 292 305 292 263 277 301 315 326 336 346 346 338 335 336 338 339 335 330 328 326 324 326 329 329 328 329 329 330 331 331 329 330 333 332 330 327 324 324 322 319 318 318 317 315 314 315 312 309 309 310 309 312 314 315 313 311 310 309 309 309 307 305 303 301 300 300
86 343 272 284 288 271 275 283 291 299 292 294 306 313 313 294 149 139 262 289 325 324 299 301 312 311 312 323 336 340 338 332 329 333 336 334 329 326 324 322 321 325 327 328 329 330 330 330 331 333 331 329 330 332 333 329 324 321 322 322 320 318 315 311 310 313 313 311 313 316 315 314 314 312 309 305 303 306 308 309 307 304 301 299 299 296
110 265 251 297 300 285 283 286 290 296 292 296 305 308 310 301 151 203 249 288 331 310 295 309 318 312 312 326 340 335 332 328 329 330 329 327 324 324 323 321 321 325 327 328 329 330 331 330 329 332 333 332 331 332 333 331 327 323 323 324 322 317 315 316 315 316 317 319 322 321 316 313 311 309 309 306 306 309 310 308 307 306 302 298 295 291
108 253 272 298 291 287 291 288 288 301 305 306 307 309 322 141 199 249 251 276 293 275 283 302 309 306 313 334 334 327 327 328 329 327 323 322 324 324 323 321 322 325 327 328 329 330 330 329 328 330 332 333 333 334 333 330 327 325 324 324 323 320 322 324 322 320 321 322 322 320 316 315 315 314 315 316 315 314 310 307 305 303 302 299 293 289
54 284 296 328 305 300 300 292 295 308 305 303 304 306 315 315 304 313 312 306 296 288 295 304 304 303 320 337 323 320 325 327 327 323 320 322 324 323 322 321 323 326 326 327 328 329 330 329 328 330 332 333 333 332 334 332 326 323 326 326 324 323 325 326 324 320 319 320 320 318 317 318 318 319 320 319 317 314 310 307 303 299 297 293 290 288
36 313 314 12 336 303 304 316 318 313 305 301 301 300 307 320 333 319 303 302 305 307 310 311 307 307 324 327 317 317 324 326 323 320 321 322 322 321 319 320 324 325 324 326 328 329 330 330 329 330 332 334 334 332 334 333 328 324 326 326 325 324 324 324 324 321 318 319 319 318 318 320 319 318 318 317 316 314 310 309 310 306 298 292 292 293
39 345 324 1 334 299 309 322 316 311 314 315 308 295 304 319 319 292 276 288 303 309 311 311 311 314 321 321 318 320 325 323 320 320 320 319 317 316 316 319 323 323 323 325 327 329 330 329 328 330 332 334 335 334 333 332 328 326 327 326 325 324 323 322 322 321 319 319 320 320 319 320 319 317 317 316 315 313 312 313 316 315 309 304 304 306
30 3 306 329 286 295 307 316 317 325 335 328 336 94 72 344 322 314 306 306 310 310 311 313 314 317 320 320 319 320 321 319 318 317 317 316 314 314 317 320 322 323 324 326 327 329 330 328 328 330 333 333 334 335 336 333 328 327 326 325 325 325 324 323 322 321 321 320 320 321 321 320 319 318 317 315 314 313 314 317 318 318 317 316 315 314
356 333 296 258 228 277 301 330 343 331 317 308 115 104 76 314 309 313 311 311 312 314 323 322 310 312 317 317 318 318 318 318 317 316 316 316 315 318 320 322 323 324 326 327 328 329 329 329 330 331 334 334 333 335 337 334 330 328 328 326 325 325 325 325 323 322 322 322 322 321 321 320 319 318 316 315 315 316 318 320 321 321 322 321 320 319
325 314 296 277 276 307 333 352 332 303 304 328 88 76 352 339 328 317 310 313 318 316 319 310 303 313 320 319 319 319 318 317 314 314 317 319 321 323 323 323 324 325 326 328 329 329 329 330 332 332 333 334 333 334 336 335 330 328 329 328 327 327 326 325 325 325 324 324 324 322 321 321 320 319 318 317 319 321 323 325 324 325 326 326 327 330
128 7 351 325 267 332 322 309 289 290 308 4 77 336 320 322 325 317 309 318 343 1 324 320 317 324 325 321 320 320 319 317 310 312 320 324 325 325 325 324 325 326 327 328 329 329 329 331 333 332 332 333 332 334 337 337 332 329 329 330 330 329 329 327 326 327 326 325 324 323 322 321 321 320 320 322 324 326 327 327 327 329 332 334 337 343
58 197 76 326 288 348 318 304 308 313 321 2 297 298 309 311 312 307 302 308 13 345 336 335 328 325 324 321 322 322 320 316 306 315 325 326 326 325 325 326 327 328 329 330 330 331 331 333 333 332 333 333 332 334 339 337 331 329 329 329 330 330 330 330 330 329 327 325 324 324 324 324 324 323 324 327 328 328 329 330 332 336 340 342 344 347
338 319 104 102 297 322 325 309 309 303 307 319 306 323 336 328 316 309 302 306 348 341 338 336 326 323 324 322 323 323 320 318 313 319 324 324 324 325 326 328 330 331 331 332 332 332 333 334 333 333 335 334 330 335 341 338 330 329 330 329 331 330 330 332 332 329 327 326 325 326 326 327 328 328 329 330 330 331 332 334 338 344 350 350 349 350
345 353 45 17 292 305 312 302 290 274 289 297 311 333 342 333 322 318 310 318 341 340 336 332 325 324 325 323 323 324 321 318 314 315 320 321 321 324 327 329 331 332 333 333 334 334 334 334 334 334 335 333 330 336 342 339 331 330 332 331 332 332 332 333 332 330 329 328 328 329 330 331 333 333 333 334 333 334 336 340 345 352 358 360 360 360
336 340 23 267 280 306 304 292 304 294 283 311 335 342 346 340 333 336 320 322 334 334 330 328 324 323 323 322 322 320 316 315 313 314 318 320 322 326 329 330 331 332 333 335 335 335 335 335 335 335 334 332 334 339 341 338 332 331 333 334 334 334 334 334 333 332 330 329 330 333 335 336 337 336 337 338 337 338 344 350 353 359 5 5 3 359
336 328 337 283 287 303 277 292 316 306 321 352 346 346 352 352 340 330 323 325 329 327 326 326 324 322 322 321 319 318 316 315 315 317 319 322 325 328 331 332 333 334 336 336 335 336 336 335 336 336 333 334 341 343 341 339 335 333 334 335 335 336 336 336 335 333 332 333 335 337 338 339 340 341 342 344 344 346 354 359 0 4 6 3 359 355
325 318 316 292 276 308 301 311 328 310 336 351 349 347 358 357 330 324 325 325 326 327 326 326 323 323 323 321 319 319 318 318 319 321 324 326 329 332 334 335 336 337 338 337 336 338 339 337 337 336 334 337 343 343 341 341 338 336 337 336 336 339 339 338 336 335 336 338 338 339 340 342 344 347 348 350 352 353 357 1 1 3 5 3 358 349
268 267 305 286 265 2 332 310 302 297 319 341 347 338 336 336 331 331 330 325 326 329 328 325 324 324 325 322 321 321 320 321 324 326 328 331 333 335 336 338 340 339 338 338 340 340 339 337 337 336 335 340 342 342 343 343 340 339 339 337 339 341 340 338 339 339 340 341 340 341 344 345 349 352 353 356 357 356 358 1 0 1 3 1 355 346
223 205 253 257 228 252 253 264 291 303 317 335 339 331 330 333 334 336 333 327 327 328 327 326 324 324 325 324 323 323 324 325 328 329 332 334 336 337 339 340 340 339 340 341 341 339 338 339 338 338 340 343 342 343 345 345 342 342 341 340 343 344 341 341 342 342 343 343 343 345 347 348 351 354 356 359 360 359 0 0 359 0 359 354 352 349
236 256 298 300 283 280 267 276 301 317 328 334 334 333 334 335 335 336 333 329 327 327 327 327 325 326 328 328 327 327 327 328 331 333 334 336 338 340 340 339 340 343 343 340 339 338 340 342 342 342 344 343 343 345 348 347 345 344 342 343 346 346 344 344 344 344 345 345 347 349 350 351 354 357 358 1 2 2 3 2 359 358 357 354 352 352
297 305 313 318 313 313 305 307 321 329 332 332 333 335 335 334 334 335 333 330 329 328 328 328 329 330 331 331 331 330 329 331 335 336 337 340 342 341 340 341 343 343 340 338 339 341 343 344 345 344 343 342 344 347 347 347 347 347 346 347 349 348 347 347 346 345 347 348 350 352 353 355 358 359 1 4 5 4 6 7 5 2 2 0 355 354
310 320 313 308 312 310 307 318 328 329 327 330 334 334 333 333 333 334 334 332 331 331 331 332 333 334 334 333 334 334 332 334 338 339 339 342 343 342 342 343 342 339 338 340 344 346 346 345 344 343 343 344 346 347 346 347 349 349 350 352 351 350 350 349 348 348 349 351 353 355 357 359 0 0 2 4 6 6 7 9 10 10 12 10 0 356
329 330 322 316 315 306 305 322 332 329 324 329 333 331 332 333 332 333 335 335 335 336 335 335 336 336 336 336 337 337 335 336 339 340 340 341 342 342 342 341 339 338 340 344 347 347 347 346 344 344 345 345 346 347 348 349 351 352 353 354 353 353 352 351 350 351 353 355 356 357 360 2 2 2 2 2 4 8 10 12 12 11 13 15 9 2
347 334 329 332 326 317 317 329 335 330 319 325 329 330 332 335 335 336 337 338 338 339 338 337 337 337 339 340 340 339 338 339 340 341 340 341 342 342 341 340 339 341 345 347 345 344 346 347 346 346 347 346 347 349 350 351 352 354 355 355 355 355 353 352 352 353 356 358 359 0 1 2 2 4 4 3 2 4 9 17 20 17 14 13 13 14
345 329 331 332 314 310 319 326 330 326 315 319 326 331 334 337 339 340 339 339 339 339 339 340 340 339 340 342 343 343 342 341 341 341 342 342 341 340 341 341 343 345 347 347 346 345 346 348 348 348 349 349 349 350 351 353 354 355 356 358 358 356 356 355 354 354 357 360 1 2 3 2 3 5 5 5 4 3 4 10 19 24 24 19 15 19
Height
1517 1521 1526 1528 1530 1530 1527 1528 1529 1528 1529 1528 1526 1525 1524 1525 1522 1517 1510 1505 1505 1504 1499 1497 1496 1494 1491 1488 1489 1491 1492 1495 1498 1499 1502 1504 1507 1509 1510 1511 1512 1512 1512 1512 1511 1509 1508 1506 1505 1504 1502 1501 1499 1497 1494 1491 1489 1488 1487 1485 1484 1483 1481 1479 1476 1474 1472 1470 1467 1465 1463 1462 1460 1459 1457 1456 1456 1455 1455 1455 1453 1451 1449 1448 1447 1446
1519 1525 1531 1530 1529 1528 1527 1527 1527 1526 1527 1527 1525 1524 1523 1523 1518 1512 1509 1505 1505 1506 1499 1494 1494 1493 1489 1484 1484 1489 1492 1496 1498 1501 1504 1506 1509 1510 1511 1512 1512 1512 1512 1511 1510 1508 1507 1505 1504 1502 1500 1498 1496 1494 1492 1490 1488 1487 1486 1484 1482 1481 1479 1477 1474 1472 1470 1469 1466 1463 1461 1459 1457 1456 1455 1453 1453 1452 1451 1451 1450 1448 1446 1445 1444 1443
1524 1527 1530 1528 1528 1527 1526 1526 1525 1525 1527 1527 1527 1524 1522 1522 1516 1507 1505 1505 1506 1507 1499 1491 1493 1492 1488 1486 1487 1491 1495 1499 1501 1503 1506 1508 1510 1511 1512 1513 1512 1512 1511 1510 1509 1507 1505 1504 1502 1500 1499 1497 1495 1493 1491 1489 1487 1486 1484 1483 1481 1479 1476 1474 1472 1470 1468 1467 1465 1462 1459 1457 1454 1453 1452 1451 1450 1449 1448 1447 1447 1446 1444 1442 1441 1440
1528 1529 1527 1527 1527 1526 1526 1526 1527 1527 1527 1527 1527 1525 1522 1522 1522 1513 1503 1502 1507 1507 1500 1492 1491 1490 1488 1490 1493 1496 1498 1501 1504 1505 1508 1510 1511 1512 1513 1513 1512 1511 1510 1509 1508 1506 1505 1503 1501 1500 1498 1496 1495 1492 1490 1488 1485 1483 1482 1480 1479 1477 1474 1472 1470 1468 1466 1463 1461 1459 1457 1455 1452 1450 1449 1448 1446 1446 1445 1444 1443 1442 1441 1440 1438 1437
1530 1529 1526 1527 1527 1526 1527 1527 1528 1528 1527 1528 1526 1524 1522 1519 1521 1518 1508 1504 1504 1501 1499 1496 1492 1487 1487 1492 1497 1500 1501 1503 1506 1507 1510 1511 1512 1513 1513 1512 1512 1511 1510 1509 1507 1506 1505 1503 1501 1500 1498 1496 1493 1491 1488 1486 1483 1481 1479 1478 1476 1474 1472 1470 1467 1465 1462 1460 1458 1456 1454 1451 1449 1447 1445 1444 1443 1443 1442 1441 1440 1439 1438 1437 1435 1435
1529 1528 1526 1527 1527 1528 1529 1527 1527 1529 1528 1529 1524 1521 1521 1518 1518 1515 1510 1510 1507 1502 1497 1497 1499 1492 1486 1493 1500 1502 1503 1505 1508 1509 1511 1512 1512 1512 1513 1512 1513 1512 1511 1510 1508 1507 1505 1503 1501 1499 1497 1494 1491 1488 1486 1483 1481 1479 1476 1475 1473 1471 1468 1466 1464 1461 1458 1456 1455 1453 1452 1449 1447 1445 1443 1441 1440 1439 1439 1438 1436 1436 1435 1433 1432 1431
1528 1527 1527 1528 1528 1529 1530 1527 1527 1528 1529 1528 1523 1520 1520 1519 1518 1513 1510 1515 1514 1507 1499 1499 1507 1502 1490 1493 1500 1503 1506 1507 1509 1511 1512 1513 1513 1513 1514 1513 1513 1512 1511 1510 1508 1507 1505 1502 1500 1497 1494 1491 1487 1485 1483 1481 1479 1476 1474 1471 1469 1467 1465 1463 1461 1458 1456 1453 1452 1451 1449 1447 1445 1443 1440 1439 1438 1436 1435 1434 1433 1432 1431 1430 1429 1428
1528 1528 1529 1529 1529 1529 1528 1528 1527 1527 1529 1526 1521 1521 1520 1518 1517 1512 1511 1516 1514 1508 1504 1502 1505 1503 1494 1495 1502 1504 1507 1509 1510 1514 1513 1513 1514 1513 1514 1514 1512 1512 1510 1508 1507 1505 1503 1500 1497 1494 1490 1488 1485 1483 1481 1478 1476 1473 1471 1468 1466 1464 1462 1460 1457 1455 1452 1450 1449 1448 1446 1444 1442 1440 1438 1436 1434 1433 1431 1430 1429 1428 1428 1427 1426 1424
1529 1530 1530 1530 1530 1530 1528 1528 1527 1526 1527 1524 1521 1521 1520 1517 1514 1511 1511 1513 1511 1508 1508 1506 1505 1508 1501 1497 1504 1507 1508 1512 1513 1514 1514 1513 1514 1514 1513 1513 1511 1510 1509 1507 1505 1503 1501 1498 1495 1492 1488 1486 1484 1481 1479 1475 1473 1470 1468 1466 1463 1461 1459 1456 1454 1452 1450 1448 1446 1445 1443 1440 1438 1436 1435 1433 1431 1429 1428 1426 1425 1425 1424 1423 1422 1421
1530 1530 1531 1531 1531 1531 1528 1527 1526 1526 1527 1524 1522 1520 1519 1517 1512 1510 1509 1509 1508 1507 1509 1510 1510 1516 1510 1499 1505 1508 1507 1513 1514 1514 1515 1513 1513 1513 1511 1511 1509 1508 1507 1505 1503 1501 1498 1496 1493 1490 1486 1484 1481 1479 1476 1473 1470 1467 1465 1463 1460 1458 1455 1453 1451 1449 1447 1445 1444 1442 1439 1437 1434 1433 1431 1429 1428 1426 1424 1423 1421 1420 1420 1419 1418 1417
1532 1531 1531 1531 1531 1530 1529 1528 1525 1526 1528 1524 1522 1521 1517 1514 1510 1509 1506 1504 1509 1508 1508 1512 1511 1519 1520 1506 1506 1510 1509 1513 1514 1514 1515 1512 1512 1513 1512 1511 1509 1507 1506 1504 1502 1499 1496 1493 1490 1487 1483 1481 1478 1476 1473 1470 1466 1464 1462 1459 1456 1454 1452 1450 1448 1446 1444 1442 1440 1438 1436 1434 1431 1429 1428 1426 1424 1423 1421 1419 1417 1416 1416 1415 1414 1414
1532 1531 1531 1530 1531 1530 1529 1528 1525 1526 1528 1525 1526 1526 1519 1515 1512 1509 1506 1508 1517 1514 1509 1511 1511 1516 1520 1510 1507 1513 1513 1514 1514 1516 1517 1516 1516 1515 1514 1512 1510 1509 1507 1505 1501 1497 1493 1489 1486 1483 1480 1478 1475 1473 1470 1467 1464 1461 1459 1456 1453 1451 1450 1448 1446 1444 1441 1439 1437 1435 1433 1430 1428 1426 1425 1423 1421 1419 1418 1416 1414 1413 1412 1410 1410 1409
1532 1531 1533 1531 1531 1531 1531 1530 1528 1528 1529 1527 1529 1530 1529 1529 1525 1521 1519 1519 1520 1514 1509 1511 1513 1514 1513 1508 1509 1513 1514 1515 1517 1519 1519 1518 1517 1514 1513 1512 1509 1507 1504 1501 1497 1493 1490 1487 1484 1481 1478 1475 1472 1470 1467 1464 1462 1459 1456 1453 1450 1448 1446 1445 1443 1440 1438 1435 1433 1431 1429 1427 1425 1424 1422 1420 1418 1416 1415 1413 1411 1410 1408 1406 1406 1405
1537 1532 1533 1532 1531 1532 1532 1532 1531 1530 1531 1531 1531 1534 1540 1545 1545 1541 1535 1529 1523 1515 1510 1512 1515 1515 1510 1507 1511 1513 1515 1517 1517 1519 1519 1518 1517 1514 1510 1508 1504 1502 1500 1498 1495 1492 1490 1487 1484 1480 1477 1474 1470 1467 1464 1461 1459 1456 1453 1450 1447 1445 1443 1441 1439 1437 1434 1432 1430 1427 1425 1424 1422 1420 1419 1417 1415 1413 1411 1410 1408 1406 1404 1403 1401 1401
1547 1539 1535 1535 1535 1535 1533 1534 1534 1533 1533 1533 1531 1535 1541 1545 1551 1551 1541 1535 1531 1522 1516 1515 1516 1514 1511 1511 1512 1513 1516 1518 1518 1518 1517 1514 1511 1508 1504 1503 1503 1502 1501 1499 1496 1493 1490 1486 1483 1479 1475 1472 1468 1465 1461 1458 1455 1452 1449 1446 1444 1441 1438 1437 1435 1432 1430 1428 1425 1423 1421 1420 1418 1416 1415 1413 1411 1409 1407 1406 1404 1402 1401 1399 1398 1396
1553 1544 1537 1537 1537 1536 1534 1534 1533 1533 1534 1534 1531 1535 1539 1539 1543 1545 1537 1533 1534 1531 1525 1520 1513 1508 1509 1512 1512 1515 1517 1517 1516 1514 1511 1509 1506 1505 1505 1506 1506 1504 1502 1499 1495 1492 1489 1485 1481 1477 1474 1470 1466 1462 1459 1456 1453 1449 1446 1443 1440 1437 1434 1432 1430 1428 1425 1423 1421 1419 1417 1415 1413 1412 1411 1409 1407 1405 1403 1402 1400 1398 1397 1395 1394 1393
1559 1548 1539 1538 1536 1534 1536 1534 1533 1535 1534 1534 1535 1536 1536 1536 1538 1542 1538 1531 1534 1537 1527 1516 1513 1511 1511 1513 1512 1514 1514 1511 1512 1512 1510 1509 1508 1508 1510 1509 1507 1505 1501 1499 1495 1491 1487 1483 1479 1476 1472 1468 1464 1460 1456 1453 1450 1446 1442 1439 1436 1433 1430 1428 1425 1423 1421 1419 1417 1415 1413 1411 1409 1408 1407 1405 1402 1401 1399 1397 1395 1394 1392 1391 1390 1389
1566 1556 1544 1542 1539 1535 1536 1535 1533 1534 1535 1535 1538 1536 1533 1533 1536 1541 1542 1536 1538 1541 1525 1513 1519 1520 1518 1519 1514 1512 1514 1513 1514 1514 1512 1511 1512 1513 1512 1509 1507 1504 1501 1497 1494 1490 1485 1481 1477 1473 1470 1466 1462 1459 1454 1451 1447 1443 1440 1437 1433 1430 1427 1424 1421 1418 1416 1414 1412 1410 1407 1406 1405 1404 1402 1400 1398 1396 1394 1391 1389 1388 1386 1386 1385 1384
1569 1560 1546 1541 1540 1536 1535 1536 1535 1534 1534 1535 1536 1534 1535 1540 1542 1541 1543 1542 1542 1541 1526 1514 1517 1520 1520 1521 1519 1518 1519 1517 1514 1513 1513 1514 1515 1514 1510 1508 1505 1502 1499 1495 1491 1487 1484 1480 1476 1472 1468 1464 1460 1456 1452 1449 1445 1441 1438 1434 1430 1427 1424 1420 1417 1414 1412 1409 1407 1405 1403 1402 1400 1399 1398 1396 1394 1391 1388 1386 1383 1381 1379 1379 1379 1379
1568 1565 1553 1542 1541 1540 1536 1536 1538 1536 1535 1535 1534 1534 1536 1541 1543 1542 1542 1541 1541 1539 1531 1521 1516 1518 1520 1520 1521 1522 1517 1515 1514 1515 1516 1516 1514 1512 1509 1506 1504 1500 1497 1493 1488 1485 1481 1478 1475 1471 1467 1462 1458 1454 1450 1446 1443 1439 1435 1431 1427 1423 1419 1415 1412 1409 1407 1405 1402 1400 1399 1397 1396 1394 1393 1391 1389 1386 1383 1380 1377 1375 1373 1372 1373 1373
1567 1568 1558 1544 1542 1544 1540 1539 1540 1539 1539 1538 1536 1537 1539 1539 1540 1542 1539 1536 1538 1538 1537 1533 1522 1513 1514 1517 1520 1518 1514 1514 1517 1516 1516 1514 1512 1511 1508 1505 1502 1498 1495 1491 1487 1482 1479 1476 1473 1470 1466 1461 1456 1452 1448 1444 1440 1435 1431 1427 1423 1419 1415 1412 1409 1406 1403 1401 1398 1396 1395 1393 1391 1390 1388 1386 1384 1380 1376 1373 1370 1369 1368 1367 1367 1368
1569 1569 1564 1555 1551 1546 1541 1540 1540 1539 1539 1539 1537 1537 1540 1541 1543 1546 1540 1532 1534 1536 1537 1541 1530 1513 1511 1516 1516 1515 1515 1517 1518 1516 1514 1512 1510 1508 1505 1503 1500 1496 1493 1489 1484 1480 1476 1473 1470 1466 1463 1458 1454 1450 1445 1441 1437 1432 1427 1423 1419 1416 1413 1410 1407 1404 1401 1398 1395 1392 1390 1389 1386 1384 1382 1380 1377 1373 1369 1366 1365 1364 1363 1362 1362 1362
1572 1571 1567 1561 1554 1545 1540 1539 1540 1539 1537 1537 1538 1536 1538 1541 1542 1547 1545 1534 1533 1532 1530 1535 1531 1515 1511 1514 1513 1514 1518 1518 1518 1516 1513 1510 1508 1506 1503 1500 1497 1494 1490 1486 1482 1478 1474 1470 1466 1462 1458 1454 1451 1447 1442 1438 1434 1429 1425 1420 1416 1412 1409 1407 1404 1401 1398 1394 1391 1388 1386 1384 1382 1379 1377 1374 1370 1366 1364 1362 1361 1360 1359 1358 1357 1357
1571 1570 1566 1556 1547 1540 1538 1538 1539 1539 1538 1538 1538 1537 1538 1540 1539 1541 1541 1538 1538 1533 1527 1531 1526 1513 1508 1510 1511 1515 1517 1517 1516 1514 1511 1508 1505 1503 1500 1497 1494 1491 1487 1483 1479 1476 1471 1466 1462 1458 1454 1450 1446 1443 1439 1435 1430 1426 1422 1417 1413 1408 1405 1402 1399 1396 1393 1390 1386 1384 1381 1379 1377 1375 1372 1368 1364 1362 1360 1359 1357 1356 1355 1354 1353 1352
1570 1568 1567 1562 1555 1547 1540 1540 1539 1537 1540 1542 1540 1538 1539 1539 1539 1538 1536 1541 1543 1533 1529 1535 1525 1507 1504 1507 1510 1514 1515 1514 1513 1511 1509 1506 1501 1499 1497 1494 1491 1487 1482 1479 1476 1471 1467 1462 1457 1453 1449 1446 1442 1438 1434 1431 1426 1421 1417 1413 1409 1405 1401 1397 1394 1390 1387 1384 1381 1378 1376 1373 1371 1369 1367 1363 1360 1358 1357 1355 1354 1353 1352 1351 1349 1348
1572 1570 1569 1569 1570 1567 1559 1555 1549 1542 1542 1541 1538 1539 1539 1539 1541 1539 1538 1542 1542 1531 1531 1537 1524 1504 1503 1507 1509 1512 1513 1510 1509 1507 1506 1503 1500 1497 1494 1490 1487 1483 1479 1476 1472 1467 1463 1459 1454 1450 1445 1442 1438 1434 1430 1425 1421 1417 1413 1409 1405 1401 1397 1393 1389 1385 1382 1378 1376 1373 1371 1368 1366 1364 1361 1359 1357 1355 1353 1352 1350 1349 1348 1347 1346 1344
1574 1572 1572 1572 1573 1573 1567 1560 1552 1549 1548 1543 1538 1537 1537 1538 1540 1540 1539 1537 1535 1533 1531 1529 1521 1512 1509 1509 1510 1511 1511 1508 1505 1504 1501 1499 1497 1494 1491 1487 1483 1480 1476 1472 1468 1464 1460 1455 1452 1447 1443 1438 1434 1431 1427 1422 1417 1412 1408 1404 1400 1397 1393 1388 1385 1381 1378 1375 1372 1369 1367 1364 1362 1361 1358 1355 1354 1352 1350 1348 1347 1346 1344 1343 1342 1341
1574 1572 1572 1572 1570 1567 1563 1557 1552 1552 1551 1544 1539 1537 1535 1537 1539 1540 1538 1533 1533 1536 1525 1513 1517 1519 1513 1510 1512 1512 1511 1508 1504 1501 1498 1496 1494 1491 1487 1483 1480 1476 1472 1468 1464 1459 1455 1450 1446 1443 1439 1435 1430 1425 1422 1418 1413 1408 1403 1399 1395 1391 1388 1384 1381 1377 1375 1372 1369 1366 1363 1361 1359 1357 1354 1351 1349 1348 1346 1345 1343 1342 1341 1340 1339 1338
1575 1573 1571 1570 1567 1562 1559 1556 1552 1550 1547 1541 1539 1537 1535 1538 1539 1539 1538 1534 1535 1538 1525 1512 1517 1518 1510 1509 1512 1510 1509 1506 1502 1498 1496 1494 1491 1487 1483 1479 1475 1472 1468 1464 1459 1455 1451 1446 1441 1437 1434 1430 1426 1421 1415 1411 1408 1404 1399 1395 1392 1387 1384 1381 1377 1374 1371 1369 1366 1363 1360 1358 1355 1353 1351 1348 1346 1345 1344 1342 1340 1339 1338 1337 1335 1333
1575 1572 1569 1570 1567 1561 1556 1553 1550 1548 1545 1540 1537 1535 1536 1538 1538 1538 1538 1536 1535 1535 1528 1521 1520 1515 1510 1511 1510 1508 1507 1504 1500 1496 1493 1491 1488 1483 1479 1475 1471 1467 1464 1460 1456 1452 1448 1443 1439 1434 1429 1426 1422 1417 1413 1408 1403 1399 1395 1391 1388 1384 1381 1378 1374 1371 1368 1365 1363 1360 1357 1354 1351 1349 1347 1345 1343 1342 1340 1338 1336 1335 1333 1332 1329 1328
1574 1571 1570 1571 1567 1559 1553 1550 1548 1547 1545 1541 1537 1535 1535 1537 1537 1538 1537 1536 1535 1533 1527 1524 1520 1513 1510 1511 1509 1507 1505 1501 1498 1494 1490 1487 1484 1480 1475 1471 1467 1463 1459 1456 1452 1448 1444 1440 1436 1431 1427 1422 1418 1413 1409 1405 1400 1396 1392 1388 1385 1382 1379 1375 1372 1369 1365 1362 1360 1357 1354 1351 1348 1346 1344 1342 1341 1339 1336 1335 1333 1331 1329 1327 1325 1324
1575 1574 1571 1571 1569 1559 1550 1548 1548 1546 1543 1540 1536 1533 1533 1536 1539 1540 1539 1536 1536 1531 1524 1521 1519 1513 1510 1510 1508 1505 1503 1499 1495 1492 1488 1484 1481 1478 1474 1470 1465 1461 1456 1452 1448 1445 1441 1437 1433 1428 1424 1420 1415 1410 1405 1400 1396 1392 1389 1385 1382 1379 1376 1373 1370 1367 1363 1360 1357 1354 1351 1348 1346 1344 1342 1340 1338 1336 1333 1331 1329 1327 1324 1323 1321 1320
1577 1576 1572 1573 1571 1557 1548 1550 1551 1547 1542 1536 1533 1534 1535 1537 1540 1540 1539 1536 1534 1531 1526 1522 1518 1513 1510 1508 1504 1500 1499 1497 1493 1489 1486 1482 1478 1475 1472 1469 1465 1460 1455 1450 1446 1442 1438 1434 1430 1426 1422 1418 1413 1409 1404 1398 1393 1389 1386 1383 1380 1376 1373 1370 1367 1364 1360 1357 1354 1351 1349 1346 1344 1341 1339 1337 1335 1333 1330 1328 1325 1323 1321 1318 1317 1315
1578 1577 1574 1573 1571 1560 1553 1553 1551 1548 1543 1536 1533 1537 1539 1540 1540 1539 1537 1534 1529 1527 1526 1522 1517 1513 1510 1506 1502 1497 1495 1493 1491 1489 1486 1481 1476 1473 1469 1467 1463 1458 1453 1449 1444 1440 1436 1431 1427 1423 1420 1416 1411 1407 1402 1397 1392 1388 1384 1381 1377 1374 1371 1367 1364 1361 1357 1355 1352 1349 1346 1344 1341 1338 1336 1334 1332 1329 1327 1324 1321 1319 1317 1315 1313 1311
1577 1577 1574 1572 1571 1564 1556 1556 1557 1550 1540 1534 1536 1539 1539 1540 1540 1536 1531 1529 1526 1523 1523 1521 1518 1514 1510 1506 1502 1497 1492 1489 1486 1484 1482 1479 1475 1471 1467 1463 1459 1455 1451 1446 1441 1438 1434 1429 1424 1420 1416 1413 1408 1404 1399 1394 1390 1386 1382 1379 1375 1372 1368 1365 1362 1358 1355 1352 1350 1347 1344 1341 1338 1336 1334 1331 1329 1326 1323 1320 1318 1316 1314 1312 1310 1308
1576 1577 1574 1571 1570 1564 1557 1562 1566 1551 1533 1532 1538 1540 1539 1539 1538 1534 1527 1524 1524 1523 1521 1520 1516 1512 1508 1504 1500 1495 1490 1486 1482 1479 1478 1476 1473 1470 1466 1460 1455 1452 1448 1444 1439 1435 1431 1427 1422 1417 1413 1409 1405 1401 1396 1391 1387 1383 1379 1376 1373 1369 1366 1363 1360 1356 1353 1350 1347 1344 1342 1339 1336 1333 1330 1328 1325 1322 1319 1317 1314 1312 1311 1308 1306 1305
1576 1576 1576 1573 1570 1566 1564 1564 1559 1544 1533 1537 1542 1541 1541 1539 1536 1535 1530 1522 1520 1522 1521 1517 1513 1508 1505 1501 1496 1492 1487 1482 1476 1474 1473 1472 1469 1466 1463 1459 1454 1449 1445 1441 1438 1433 1429 1425 1421 1416 1411 1406 1402 1397 1392 1388 1384 1381 1377 1374 1371 1367 1364 1361 1358 1355 1352 1348 1345 1342 1339 1336 1333 1330 1327 1324 1321 1318 1316 1314 1311 1309 1307 1305 1303 1302
1576 1576 1578 1577 1570 1566 1568 1566 1557 1547 1540 1541 1543 1541 1541 1539 1536 1536 1531 1522 1520 1521 1519 1515 1511 1507 1503 1498 1494 1490 1484 1478 1472 1468 1468 1467 1464 1460 1457 1454 1451 1447 1442 1438 1434 1430 1426 1422 1417 1413 1409 1404 1399 1395 1390 1385 1381 1378 1374 1371 1368 1365 1362 1359 1356 1353 1349 1346 1343 1340 1337 1334 1331 1328 1324 1321 1318 1315 1313 1311 1309 1306 1304 1303 1301 1301
1576 1576 1577 1577 1571 1569 1572 1571 1567 1559 1547 1541 1542 1540 1539 1538 1534 1531 1529 1523 1519 1519 1517 1514 1510 1505 1501 1497 1492 1488 1483 1477 1470 1464 1464 1462 1459 1456 1452 1448 1445 1442 1439 1435 1430 1426 1423 1419 1414 1410 1406 1401 1395 1391 1388 1383 1379 1376 1372 1369 1366 1362 1360 1357 1354 1351 1347 1344 1341 1338 1335 1332 1329 1325 1322 1318 1315 1313 1310 1308 1306 1304 1302 1302 1301 1300
1577 1577 1576 1576 1573 1572 1573 1570 1567 1561 1550 1543 1543 1540 1538 1536 1531 1532 1533 1524 1516 1517 1516 1512 1508 1504 1500 1497 1492 1488 1485 1479 1470 1464 1462 1460 1456 1453 1451 1446 1441 1437 1433 1431 1428 1423 1419 1415 1411 1406 1402 1398 1394 1389 1385 1381 1377 1374 1370 1367 1364 1361 1358 1355 1352 1348 1345 1342 1339 1336 1332 1329 1326 1323 1320 1316 1313 1311 1309 1306 1304 1302 1301 1300 1299 1298
1576 1576 1577 1576 1573 1574 1575 1570 1562 1554 1547 1543 1543 1541 1537 1533 1533 1539 1538 1525 1516 1517 1515 1511 1508 1503 1499 1496 1491 1487 1484 1480 1472 1465 1461 1458 1453 1450 1448 1444 1440 1436 1431 1427 1424 1420 1416 1412 1409 1404 1400 1395 1391 1387 1383 1379 1375 1372 1368 1365 1362 1359 1357 1353 1350 1346 1343 1340 1336 1333 1330 1326 1323 1320 1318 1315 1312 1309 1307 1305 1303 1301 1300 1299 1298 1298
1577 1578 1577 1577 1575 1573 1570 1567 1561 1552 1544 1542 1543 1540 1538 1538 1540 1540 1533 1524 1521 1519 1513 1510 1507 1501 1497 1494 1490 1485 1480 1476 1471 1464 1459 1455 1451 1447 1444 1440 1436 1433 1430 1426 1422 1418 1413 1409 1406 1402 1398 1393 1389 1385 1381 1377 1373 1370 1367 1364 1361 1358 1355 1351 1348 1344 1341 1337 1334 1330 1327 1324 1321 1319 1316 1313 1310 1307 1305 1303 1302 1301 1300 1299 1299 1298
1580 1580 1577 1575 1575 1570 1566 1569 1570 1558 1543 1541 1542 1540 1540 1544 1543 1536 1528 1524 1522 1517 1512 1508 1504 1499 1496 1491 1486 1482 1476 1470 1466 1461 1456 1452 1449 1445 1442 1438 1433 1429 1426 1422 1419 1415 1411 1406 1402 1399 1395 1391 1388 1384 1379 1375 1372 1369 1366 1363 1360 1356 1353 1349 1346 1342 1339 1335 1331 1328 1325 1322 1319 1317 1314 1311 1309 1306 1304 1303 1302 1301 1300 1299 1298 1298
1581 1581 1578 1577 1577 1576 1574 1575 1570 1556 1545 1545 1547 1545 1543 1544 1542 1537 1531 1524 1518 1515 1512 1507 1501 1497 1494 1488 1482 1477 1472 1466 1462 1458 1453 1450 1446 1442 1439 1435 1432 1427 1423 1419 1416 1412 1409 1405 1400 1397 1393 1390 1386 1382 1378 1374 1371 1368 1365 1362 1358 1355 1351 1348 1344 1340 1336 1333 1329 1326 1323 1320 1318 1315 1313 1310 1308 1306 1304 1303 1302 1301 1300 1299 1298 1297
1580 1579 1579 1578 1577 1576 1574 1567 1558 1552 1551 1552 1551 1548 1545 1543 1540 1537 1533 1525 1519 1514 1510 1505 1500 1495 1491 1486 1480 1474 1469 1464 1460 1455 1451 1447 1444 1441 1437 1433 1430 1426 1421 1417 1413 1409 1406 1402 1398 1395 1392 1388 1384 1380 1377 1374 1371 1367 1364 1360 1357 1353 1349 1346 1342 1338 1334 1331 1328 1325 1322 1319 1317 1314 1312 1310 1308 1306 1304 1303 1301 1300 1300 1299 1298 1296
1579 1578 1578 1577 1573 1569 1565 1559 1556 1555 1552 1550 1549 1547 1544 1541 1538 1535 1531 1526 1521 1515 1510 1505 1500 1494 1489 1485 1479 1473 1468 1463 1458 1453 1450 1446 1442 1440 1435 1431 1428 1424 1419 1415 1411 1407 1404 1400 1397 1393 1390 1386 1382 1379 1376 1373 1370 1367 1363 1359 1356 1352 1349 1344 1340 1337 1333 1330 1326 1323 1320 1317 1315 1313 1311 1310 1308 1307 1305 1303 1302 1300 1299 1297 1296 1295
1579 1579 1578 1576 1574 1570 1563 1557 1556 1554 1551 1548 1547 1544 1541 1539 1536 1533 1530 1525 1520 1516 1510 1506 1500 1495 1490 1485 1479 1473 1467 1462 1457 1452 1448 1445 1442 1438 1434 1430 1426 1422 1418 1413 1409 1405 1402 1398 1395 1392 1388 1384 1380 1377 1375 1372 1369 1366 1363 1359 1355 1351 1348 1344 1340 1336 1332 1329 1325 1322 1319 1316 1313 1312 1310 1309 1308 1307 1306 1304 1302 1300 1298 1296 1295 1293
1581 1579 1578 1576 1575 1572 1565 1558 1555 1554 1551 1550 1547 1542 1540 1537 1533 1531 1529 1524 1519 1514 1509 1505 1501 1496 1490 1484 1479 1473 1467 1462 1458 1453 1449 1445 1442 1438 1434 1429 1424 1420 1416 1412 1408 1405 1401 1398 1395 1391 1387 1383 1379 1376 1373 1371 1368 1365 1361 1358 1354 1351 1347 1343 1339 1335 1332 1328 1325 1322 1319 1316 1314 1312 1310 1309 1308 1307 1305 1304 1302 1300 1298 1297 1295 1293
1582 1580 1580 1578 1574 1570 1564 1559 1556 1551 1546 1545 1546 1544 1540 1537 1532 1529 1526 1522 1517 1512 1507 1502 1499 1496 1491 1485 1480 1473 1467 1462 1459 1455 1450 1446 1442 1438 1434 1429 1424 1419 1415 1411 1408 1405 1401 1398 1394 1390 1387 1383 1379 1376 1372 1369 1366 1363 1360 1357 1353 1350 1346 1342 1338 1335 1331 1328 1325 1322 1319 1316 1315 1313 1311 1309 1308 1307 1306 1304 1302 1300 1298 1297 1296 1294
1583 1581 1580 1579 1576 1571 1565 1561 1559 1554 1546 1543 1543 1542 1539 1536 1532 1527 1523 1519 1515 1511 1506 1501 1495 1492 1490 1486 1480 1474 1468 1463 1460 1456 1452 1447 1443 1438 1434 1429 1424 1419 1415 1412 1408 1404 1401 1398 1394 1390 1386 1383 1379 1376 1372 1368 1365 1362 1359 1356 1353 1349 1346 1342 1338 1334 1331 1328 1325 1322 1319 1317 1315 1313 1311 1309 1307 1306 1305 1304 1303 1301 1299 1297 1295 1294
1585 1583 1581 1580 1578 1573 1567 1564 1563 1560 1552 1546 1543 1541 1538 1534 1531 1526 1522 1518 1514 1510 1506 1501 1495 1489 1486 1484 1481 1476 1470 1465 1460 1456 1451 1447 1443 1438 1433 1428 1424 1419 1415 1412 1408 1403 1399 1397 1393 1390 1386 1382 1379 1376 1372 1368 1365 1362 1358 1356 1353 1349 1346 1342 1338 1334 1331 1328 1326 1323 1320 1318 1316 1313 1312 1310 1308 1305 1303 1302 1301 1301 1300 1297 1295 1294